Time,TemperatureF,DewpointF,PressureIn,WindDirection,WindDirectionDegrees,WindSpeedMPH,WindSpeedGustMPH,Humidity,HourlyPrecipIn,Conditions,Clouds,dailyrainin,SoftwareType,DateUTC
2013-02-10 00:00:00,53.7,47.0,30.11,NW,307,0.0,0.0,78,0.00,,,0.00,WeatherCatV1.02B3,2013-02-10 06:00:00,
2013-02-10 00:05:00,53.7,47.3,30.10,WNW,291,3.0,5.0,79,0.00,,,0.00,WeatherCatV1.02B3,2013-02-10 06:05:00,
2013-02-10 00:10:00,53.7,48.0,30.10,NW,311,0.0,3.0,81,0.00,,,0.00,WeatherCatV1.02B3,2013-02-10 06:10:00,
2013-02-10 00:15:00,53.7,48.0,30.10,WNW,296,3.0,3.0,81,0.00,,,0.00,WeatherCatV1.02B3,2013-02-10 06:15:00,
2013-02-10 00:20:00,53.7,48.3,30.10,West,281,3.0,5.0,82,0.00,,,0.00,WeatherCatV1.02B3,2013-02-10 06:20:00,
2013-02-10 00:25:00,53.8,49.1,30.10,NW,317,0.0,1.0,84,0.00,,,0.00,WeatherCatV1.02B3,2013-02-10 06:25:00,
2013-02-10 00:30:00,53.9,49.2,30.09,WNW,298,1.0,3.0,84,0.00,,,0.00,WeatherCatV1.02B3,2013-02-10 06:30:00,
2013-02-10 00:35:00,53.8,49.1,30.09,NW,304,1.0,5.0,84,0.00,,,0.00,WeatherCatV1.02B3,2013-02-10 06:35:00,
2013-02-10 00:40:00,53.8,49.4,30.10,NNW,342,0.0,2.0,85,0.00,,,0.00,WeatherCatV1.02B3,2013-02-10 06:40:00,
2013-02-10 00:45:00,53.8,49.7,30.10,WNW,295,0.0,3.0,86,0.00,,,0.00,WeatherCatV1.02B3,2013-02-10 06:45:00,
2013-02-10 00:50:00,53.9,49.8,30.10,NW,312,0.0,5.0,86,0.00,,,0.00,WeatherCatV1.02B3,2013-02-10 06:50:00,
2013-02-10 00:55:00,53.9,50.1,30.10,NW,313,0.0,0.0,87,0.00,,,0.00,WeatherCatV1.02B3,2013-02-10 06:55:00,
2013-02-10 01:00:00,53.9,50.1,30.10,WNW,299,1.0,2.0,87,0.00,,,0.00,WeatherCatV1.02B3,2013-02-10 07:00:00,
2013-02-10 01:05:00,53.9,50.4,30.10,West,273,1.0,4.0,88,0.00,,,0.00,WeatherCatV1.02B3,2013-02-10 07:05:00,
2013-02-10 01:10:00,54.0,50.5,30.10,NW,314,0.0,2.0,88,0.00,,,0.00,WeatherCatV1.02B3,2013-02-10 07:10:00,
2013-02-10 01:15:00,54.2,50.7,30.10,NW,308,0.0,1.0,88,0.00,,,0.00,WeatherCatV1.02B3,2013-02-10 07:15:00,
2013-02-10 01:20:00,54.2,50.7,30.10,WNW,286,0.0,2.0,88,0.00,,,0.00,WeatherCatV1.02B3,2013-02-10 07:20:00,
2013-02-10 01:25:00,54.3,50.8,30.10,West,262,1.0,3.0,88,0.00,,,0.00,WeatherCatV1.02B3,2013-02-10 07:25:00,
2013-02-10 01:30:00,54.5,50.7,30.09,NW,308,4.0,4.0,87,0.00,,,0.00,WeatherCatV1.02B3,2013-02-10 07:30:00,
2013-02-10 01:35:00,54.6,50.8,30.09,NNW,331,1.0,2.0,87,0.00,,,0.00,WeatherCatV1.02B3,2013-02-10 07:35:00,
2013-02-10 01:40:00,54.7,50.6,30.09,WNW,291,0.0,1.0,86,0.00,,,0.00,WeatherCatV1.02B3,2013-02-10 07:40:00,
2013-02-10 01:45:00,54.8,50.7,30.09,WNW,300,2.0,2.0,86,0.00,,,0.00,WeatherCatV1.02B3,2013-02-10 07:45:00,
2013-02-10 01:50:00,54.8,50.4,30.08,NW,322,0.0,2.0,85,0.00,,,0.00,WeatherCatV1.02B3,2013-02-10 07:50:00,
2013-02-10 01:55:00,54.9,50.5,30.07,NW,318,0.0,3.0,85,0.00,,,0.00,WeatherCatV1.02B3,2013-02-10 07:55:00,
2013-02-10 02:00:00,55.0,50.6,30.06,West,281,1.0,6.0,85,0.00,,,0.00,WeatherCatV1.02B3,2013-02-10 08:00:00,
2013-02-10 02:05:00,55.0,50.6,30.06,NW,308,4.0,6.0,85,0.00,,,0.00,WeatherCatV1.02B3,2013-02-10 08:05:00,
2013-02-10 02:10:00,55.0,50.6,30.06,NW,311,0.0,4.0,85,0.00,,,0.00,WeatherCatV1.02B3,2013-02-10 08:10:00,
2013-02-10 02:15:00,55.0,50.6,30.05,WNW,303,4.0,4.0,85,0.00,,,0.00,WeatherCatV1.02B3,2013-02-10 08:15:00,
2013-02-10 02:20:00,55.0,50.6,30.05,WNW,298,4.0,4.0,85,0.00,,,0.00,WeatherCatV1.02B3,2013-02-10 08:20:00,
2013-02-10 02:25:00,54.9,50.8,30.05,NW,323,0.0,5.0,86,0.00,,,0.00,WeatherCatV1.02B3,2013-02-10 08:25:00,
2013-02-10 02:30:00,54.9,51.1,30.05,WNW,298,0.0,5.0,87,0.00,,,0.00,WeatherCatV1.02B3,2013-02-10 08:30:00,
2013-02-10 02:35:00,54.8,51.0,30.04,West,277,3.0,5.0,87,0.00,,,0.00,WeatherCatV1.02B3,2013-02-10 08:35:00,
2013-02-10 02:40:00,54.8,51.3,30.04,NW,312,1.0,8.0,88,0.00,,,0.00,WeatherCatV1.02B3,2013-02-10 08:40:00,
2013-02-10 02:45:00,54.8,51.3,30.04,NW,305,0.0,5.0,88,0.00,,,0.00,WeatherCatV1.02B3,2013-02-10 08:45:00,
2013-02-10 02:50:00,54.8,51.6,30.04,WNW,300,0.0,4.0,89,0.00,,,0.00,WeatherCatV1.02B3,2013-02-10 08:50:00,
2013-02-10 02:55:00,55.0,51.8,30.05,NW,304,4.0,7.0,89,0.00,,,0.00,WeatherCatV1.02B3,2013-02-10 08:55:00,
2013-02-10 03:00:00,55.1,52.2,30.05,WNW,284,4.0,5.0,90,0.00,,,0.00,WeatherCatV1.02B3,2013-02-10 09:00:00,
2013-02-10 03:05:00,55.3,52.1,30.04,NNW,338,2.0,7.0,89,0.00,,,0.00,WeatherCatV1.02B3,2013-02-10 09:05:00,
2013-02-10 03:10:00,55.4,52.5,30.04,WNW,291,4.0,7.0,90,0.00,,,0.00,WeatherCatV1.02B3,2013-02-10 09:10:00,
2013-02-10 03:15:00,55.5,52.6,30.03,WNW,299,6.0,6.0,90,0.00,,,0.00,WeatherCatV1.02B3,2013-02-10 09:15:00,
2013-02-10 03:20:00,55.6,52.7,30.03,NW,326,2.0,8.0,90,0.00,,,0.00,WeatherCatV1.02B3,2013-02-10 09:20:00,
2013-02-10 03:25:00,55.7,52.8,30.03,WNW,292,3.0,9.0,90,0.00,,,0.00,WeatherCatV1.02B3,2013-02-10 09:25:00,
2013-02-10 03:30:00,55.7,52.8,30.02,NNW,330,3.0,5.0,90,0.00,,,0.00,WeatherCatV1.02B3,2013-02-10 09:30:00,
2013-02-10 03:35:00,55.7,52.8,30.02,NW,310,3.0,4.0,90,0.00,,,0.00,WeatherCatV1.02B3,2013-02-10 09:35:00,
2013-02-10 03:40:00,55.8,52.9,30.02,NW,314,3.0,8.0,90,0.00,,,0.00,WeatherCatV1.02B3,2013-02-10 09:40:00,
2013-02-10 03:45:00,55.9,53.0,30.01,NW,310,2.0,7.0,90,0.00,,,0.00,WeatherCatV1.02B3,2013-02-10 09:45:00,
2013-02-10 03:50:00,56.0,53.1,30.01,WNW,292,1.0,2.0,90,0.00,,,0.00,WeatherCatV1.02B3,2013-02-10 09:50:00,
2013-02-10 03:55:00,56.1,53.2,30.01,WNW,287,3.0,8.0,90,0.00,,,0.00,WeatherCatV1.02B3,2013-02-10 09:55:00,
2013-02-10 04:00:00,56.3,53.7,30.00,WNW,302,0.0,9.0,91,0.00,,,0.00,WeatherCatV1.02B3,2013-02-10 10:00:00,
2013-02-10 04:05:00,56.4,53.8,30.00,WSW,257,0.0,8.0,91,0.00,,,0.00,WeatherCatV1.02B3,2013-02-10 10:05:00,
2013-02-10 04:10:00,56.5,53.9,29.99,WNW,288,1.0,8.0,91,0.00,,,0.00,WeatherCatV1.02B3,2013-02-10 10:10:00,
2013-02-10 04:15:00,56.6,54.0,29.99,NW,321,1.0,4.0,91,0.00,,,0.00,WeatherCatV1.02B3,2013-02-10 10:15:00,
2013-02-10 04:20:00,56.7,54.1,29.99,NW,306,1.0,5.0,91,0.00,,,0.00,WeatherCatV1.02B3,2013-02-10 10:20:00,
2013-02-10 04:25:00,56.7,54.1,29.98,NW,304,1.0,11.0,91,0.00,,,0.00,WeatherCatV1.02B3,2013-02-10 10:25:00,
2013-02-10 04:30:00,56.8,54.2,29.98,WNW,291,4.0,7.0,91,0.00,,,0.00,WeatherCatV1.02B3,2013-02-10 10:30:00,
2013-02-10 04:35:00,56.8,54.2,29.99,NW,309,5.0,9.0,91,0.00,,,0.00,WeatherCatV1.02B3,2013-02-10 10:35:00,
2013-02-10 04:40:00,56.9,54.3,29.99,NW,321,4.0,5.0,91,0.00,,,0.00,WeatherCatV1.02B3,2013-02-10 10:40:00,
2013-02-10 04:45:00,57.0,54.1,30.00,NW,307,6.0,14.0,90,0.00,,,0.00,WeatherCatV1.02B3,2013-02-10 10:45:00,
2013-02-10 04:50:00,57.1,54.2,30.00,NW,311,7.0,9.0,90,0.00,,,0.00,WeatherCatV1.02B3,2013-02-10 10:50:00,
2013-02-10 04:55:00,57.2,54.3,30.00,West,280,1.0,9.0,90,0.00,,,0.00,WeatherCatV1.02B3,2013-02-10 10:55:00,
2013-02-10 05:00:00,57.3,54.4,30.00,NNW,340,2.0,6.0,90,0.00,,,0.00,WeatherCatV1.02B3,2013-02-10 11:00:00,
2013-02-10 05:05:00,57.3,54.4,30.01,WNW,302,1.0,5.0,90,0.00,,,0.00,WeatherCatV1.02B3,2013-02-10 11:05:00,
2013-02-10 05:10:00,57.3,54.4,30.01,NW,311,2.0,6.0,90,0.00,,,0.00,WeatherCatV1.02B3,2013-02-10 11:10:00,
2013-02-10 05:15:00,57.4,54.5,30.00,NW,309,0.0,2.0,90,0.00,,,0.00,WeatherCatV1.02B3,2013-02-10 11:15:00,
2013-02-10 05:20:00,57.4,54.5,30.00,WNW,286,3.0,8.0,90,0.00,,,0.00,WeatherCatV1.02B3,2013-02-10 11:20:00,
2013-02-10 05:25:00,57.4,54.5,30.01,WNW,290,6.0,7.0,90,0.00,,,0.00,WeatherCatV1.02B3,2013-02-10 11:25:00,
2013-02-10 05:30:00,57.4,54.5,30.00,NW,304,0.0,6.0,90,0.00,,,0.00,WeatherCatV1.02B3,2013-02-10 11:30:00,
2013-02-10 05:35:00,57.4,54.5,30.00,NW,321,2.0,4.0,90,0.00,,,0.00,WeatherCatV1.02B3,2013-02-10 11:35:00,
2013-02-10 05:40:00,57.4,54.5,30.00,West,279,0.0,5.0,90,0.00,,,0.00,WeatherCatV1.02B3,2013-02-10 11:40:00,
2013-02-10 05:45:00,57.4,54.5,30.00,West,277,0.0,4.0,90,0.00,,,0.00,WeatherCatV1.02B3,2013-02-10 11:45:00,
2013-02-10 05:50:00,57.5,54.6,30.01,North,350,1.0,8.0,90,0.00,,,0.00,WeatherCatV1.02B3,2013-02-10 11:50:00,
2013-02-10 05:55:00,57.5,54.6,30.01,NW,306,1.0,7.0,90,0.00,,,0.00,WeatherCatV1.02B3,2013-02-10 11:55:00,
2013-02-10 06:00:00,57.6,55.3,30.00,NW,326,2.0,7.0,92,0.00,,,0.00,WeatherCatV1.02B3,2013-02-10 12:00:00,
2013-02-10 06:05:00,57.6,54.7,30.00,WNW,294,1.0,10.0,90,0.00,,,0.00,WeatherCatV1.02B3,2013-02-10 12:05:00,
2013-02-10 06:10:00,57.6,54.7,30.00,WNW,292,4.0,7.0,90,0.00,,,0.00,WeatherCatV1.02B3,2013-02-10 12:10:00,
2013-02-10 06:15:00,57.6,54.7,30.00,WNW,289,2.0,4.0,90,0.00,,,0.00,WeatherCatV1.02B3,2013-02-10 12:15:00,
2013-02-10 06:20:00,57.7,54.8,30.00,NW,315,2.0,6.0,90,0.00,,,0.00,WeatherCatV1.02B3,2013-02-10 12:20:00,
2013-02-10 06:25:00,57.7,54.8,30.00,WNW,291,2.0,9.0,90,0.00,,,0.00,WeatherCatV1.02B3,2013-02-10 12:25:00,
2013-02-10 06:30:00,57.7,54.8,30.00,WNW,292,2.0,2.0,90,0.00,,,0.00,WeatherCatV1.02B3,2013-02-10 12:30:00,
2013-02-10 06:35:00,57.7,54.8,29.99,WNW,301,0.0,9.0,90,0.00,,,0.00,WeatherCatV1.02B3,2013-02-10 12:35:00,
2013-02-10 06:40:00,57.8,54.9,30.00,WNW,298,2.0,4.0,90,0.00,,,0.00,WeatherCatV1.02B3,2013-02-10 12:40:00,
2013-02-10 06:45:00,57.8,54.9,30.00,WNW,302,6.0,13.0,90,0.00,,,0.00,WeatherCatV1.02B3,2013-02-10 12:45:00,
2013-02-10 06:50:00,57.8,55.2,30.00,NW,313,5.0,8.0,91,0.00,,,0.00,WeatherCatV1.02B3,2013-02-10 12:50:00,
2013-02-10 06:55:00,57.8,55.2,30.00,WNW,288,4.0,8.0,91,0.00,,,0.00,WeatherCatV1.02B3,2013-02-10 12:55:00,
2013-02-10 07:00:00,57.7,55.1,30.00,West,277,1.0,12.0,91,0.00,,,0.00,WeatherCatV1.02B3,2013-02-10 13:00:00,
2013-02-10 07:05:00,57.6,55.0,29.99,WNW,282,1.0,8.0,91,0.00,,,0.00,WeatherCatV1.02B3,2013-02-10 13:05:00,
2013-02-10 07:10:00,57.6,55.0,29.99,NNW,331,1.0,8.0,91,0.00,,,0.00,WeatherCatV1.02B3,2013-02-10 13:10:00,
2013-02-10 07:15:00,57.7,55.1,29.99,NNW,340,4.0,10.0,91,0.00,,,0.00,WeatherCatV1.02B3,2013-02-10 13:15:00,
2013-02-10 07:20:00,57.7,55.1,29.99,West,277,4.0,14.0,91,0.00,,,0.00,WeatherCatV1.02B3,2013-02-10 13:20:00,
2013-02-10 07:25:00,57.8,55.2,29.99,NNW,336,5.0,8.0,91,0.00,,,0.00,WeatherCatV1.02B3,2013-02-10 13:25:00,
2013-02-10 07:30:00,57.9,55.3,29.99,NW,313,8.0,10.0,91,0.00,,,0.00,WeatherCatV1.02B3,2013-02-10 13:30:00,
2013-02-10 07:35:00,58.1,55.5,29.99,NW,319,3.0,6.0,91,0.00,,,0.00,WeatherCatV1.02B3,2013-02-10 13:35:00,
2013-02-10 07:40:00,58.2,55.6,29.99,NNW,344,3.0,11.0,91,0.00,,,0.00,WeatherCatV1.02B3,2013-02-10 13:40:00,
2013-02-10 07:45:00,58.3,55.7,29.99,NW,324,0.0,6.0,91,0.00,,,0.00,WeatherCatV1.02B3,2013-02-10 13:45:00,
2013-02-10 07:50:00,58.5,55.9,29.99,WNW,293,8.0,8.0,91,0.00,,,0.00,WeatherCatV1.02B3,2013-02-10 13:50:00,
2013-02-10 07:52:00,58.6,56.0,29.99,NW,323,4.0,10.0,91,0.00,,,0.00,WeatherCatV1.02B3,2013-02-10 13:52:00,
2013-02-10 07:57:00,58.7,56.1,29.99,NW,306,4.0,5.0,91,0.00,,,0.00,WeatherCatV1.02B3,2013-02-10 13:57:00,
2013-02-10 08:02:00,58.8,55.9,29.99,West,266,6.0,10.0,90,0.00,,,0.00,WeatherCatV1.02B3,2013-02-10 14:02:00,
2013-02-10 08:07:00,59.0,56.1,30.00,NW,305,2.0,3.0,90,0.00,,,0.00,WeatherCatV1.02B3,2013-02-10 14:07:00,
2013-02-10 08:12:00,59.1,56.2,30.00,West,279,3.0,7.0,90,0.00,,,0.00,WeatherCatV1.02B3,2013-02-10 14:12:00,
2013-02-10 08:17:00,59.1,56.2,30.00,NW,309,0.0,1.0,90,0.00,,,0.00,WeatherCatV1.02B3,2013-02-10 14:17:00,
2013-02-10 08:22:00,59.2,56.3,30.00,WNW,288,1.0,5.0,90,0.00,,,0.00,WeatherCatV1.02B3,2013-02-10 14:22:00,
2013-02-10 08:27:00,59.2,56.3,30.00,West,271,3.0,6.0,90,0.00,,,0.00,WeatherCatV1.02B3,2013-02-10 14:27:00,
2013-02-10 08:32:00,59.2,56.3,30.00,NW,313,1.0,10.0,90,0.00,,,0.00,WeatherCatV1.02B3,2013-02-10 14:32:00,
2013-02-10 08:37:00,59.2,56.3,30.00,NNW,327,6.0,9.0,90,0.00,,,0.00,WeatherCatV1.02B3,2013-02-10 14:37:00,
2013-02-10 08:42:00,59.2,56.3,30.00,NW,314,5.0,10.0,90,0.00,,,0.00,WeatherCatV1.02B3,2013-02-10 14:42:00,
2013-02-10 08:47:00,59.2,56.3,30.01,NW,318,1.0,12.0,90,0.00,,,0.00,WeatherCatV1.02B3,2013-02-10 14:47:00,
2013-02-10 08:52:00,59.3,56.4,30.00,NW,306,6.0,12.0,90,0.00,,,0.00,WeatherCatV1.02B3,2013-02-10 14:52:00,
2013-02-10 08:57:00,59.3,56.7,30.00,NW,311,3.0,6.0,91,0.00,,,0.00,WeatherCatV1.02B3,2013-02-10 14:57:00,
2013-02-10 09:02:00,59.3,56.7,30.00,WNW,300,5.0,9.0,91,0.00,,,0.00,WeatherCatV1.02B3,2013-02-10 15:02:00,
2013-02-10 09:07:00,59.4,56.8,29.99,NW,311,3.0,7.0,91,0.00,,,0.00,WeatherCatV1.02B3,2013-02-10 15:07:00,
2013-02-10 09:12:00,59.5,56.9,29.99,WNW,297,1.0,12.0,91,0.00,,,0.00,WeatherCatV1.02B3,2013-02-10 15:12:00,
2013-02-10 09:17:00,59.6,57.0,29.98,WNW,286,1.0,6.0,91,0.00,,,0.00,WeatherCatV1.02B3,2013-02-10 15:17:00,
2013-02-10 09:22:00,59.6,57.3,29.98,WNW,302,8.0,8.0,92,0.00,,,0.00,WeatherCatV1.02B3,2013-02-10 15:22:00,
2013-02-10 09:27:00,59.6,57.3,29.97,NW,313,2.0,4.0,92,0.00,,,0.00,WeatherCatV1.02B3,2013-02-10 15:27:00,
2013-02-10 09:32:00,59.6,57.3,29.96,WNW,294,1.0,12.0,92,0.00,,,0.00,WeatherCatV1.02B3,2013-02-10 15:32:00,
2013-02-10 09:37:00,59.7,57.4,29.96,NW,312,2.0,9.0,92,0.00,,,0.00,WeatherCatV1.02B3,2013-02-10 15:37:00,
2013-02-10 09:42:00,59.8,57.5,29.96,WNW,293,4.0,11.0,92,0.00,,,0.00,WeatherCatV1.02B3,2013-02-10 15:42:00,
2013-02-10 09:47:00,59.8,57.5,29.97,NW,314,11.0,11.0,92,0.00,,,0.00,WeatherCatV1.02B3,2013-02-10 15:47:00,
2013-02-10 09:52:00,59.9,57.6,29.97,West,273,2.0,6.0,92,0.00,,,0.00,WeatherCatV1.02B3,2013-02-10 15:52:00,
2013-02-10 09:57:00,60.0,57.7,29.96,WNW,302,9.0,12.0,92,0.00,,,0.00,WeatherCatV1.02B3,2013-02-10 15:57:00,
2013-02-10 10:02:00,60.2,57.9,29.97,WNW,293,5.0,12.0,92,0.00,,,0.00,WeatherCatV1.02B3,2013-02-10 16:02:00,
2013-02-10 10:07:00,60.3,58.0,29.96,NNW,336,3.0,11.0,92,0.00,,,0.00,WeatherCatV1.02B3,2013-02-10 16:07:00,
2013-02-10 10:12:00,60.5,58.2,29.95,West,278,4.0,8.0,92,0.00,,,0.00,WeatherCatV1.02B3,2013-02-10 16:12:00,
2013-02-10 10:17:00,60.7,58.4,29.95,West,277,3.0,7.0,92,0.00,,,0.00,WeatherCatV1.02B3,2013-02-10 16:17:00,
2013-02-10 10:22:00,60.8,58.5,29.96,NW,311,2.0,10.0,92,0.00,,,0.00,WeatherCatV1.02B3,2013-02-10 16:22:00,
2013-02-10 10:27:00,61.0,58.7,29.95,NW,310,0.0,6.0,92,0.00,,,0.00,WeatherCatV1.02B3,2013-02-10 16:27:00,
2013-02-10 10:32:00,61.0,58.7,29.94,WNW,292,11.0,11.0,92,0.00,,,0.01,WeatherCatV1.02B3,2013-02-10 16:32:00,
2013-02-10 10:37:00,61.0,59.0,29.95,WNW,286,7.0,9.0,93,0.00,,,0.01,WeatherCatV1.02B3,2013-02-10 16:37:00,
2013-02-10 10:42:00,61.1,59.1,29.95,NW,309,5.0,12.0,93,0.00,,,0.01,WeatherCatV1.02B3,2013-02-10 16:42:00,
2013-02-10 10:47:00,61.1,59.1,29.94,NW,319,5.0,10.0,93,0.00,,,0.01,WeatherCatV1.02B3,2013-02-10 16:47:00,
2013-02-10 10:52:00,61.0,59.0,29.95,NW,323,4.0,9.0,93,0.00,,,0.01,WeatherCatV1.02B3,2013-02-10 16:52:00,
2013-02-10 10:57:00,61.1,59.1,29.94,North,355,0.0,8.0,93,0.15,,,0.04,WeatherCatV1.02B3,2013-02-10 16:57:00,
2013-02-10 11:02:00,61.1,59.4,29.94,WNW,299,5.0,5.0,94,0.07,,,0.05,WeatherCatV1.02B3,2013-02-10 17:02:00,
2013-02-10 11:07:00,61.2,59.5,29.94,NW,309,3.0,6.0,94,0.07,,,0.05,WeatherCatV1.02B3,2013-02-10 17:07:00,
2013-02-10 11:12:00,61.3,59.6,29.94,NW,317,8.0,11.0,94,0.06,,,0.05,WeatherCatV1.02B3,2013-02-10 17:12:00,
2013-02-10 11:17:00,61.4,59.7,29.94,NNW,329,1.0,6.0,94,0.04,,,0.05,WeatherCatV1.02B3,2013-02-10 17:17:00,
2013-02-10 11:22:00,61.5,59.8,29.95,West,274,3.0,7.0,94,0.00,,,0.05,WeatherCatV1.02B3,2013-02-10 17:22:00,
2013-02-10 11:27:00,61.6,60.2,29.94,WNW,299,1.0,8.0,95,0.00,,,0.05,WeatherCatV1.02B3,2013-02-10 17:27:00,
2013-02-10 11:32:00,61.7,60.2,29.95,NNW,337,2.0,7.0,95,0.00,,,0.05,WeatherCatV1.02B3,2013-02-10 17:32:00,
2013-02-10 11:37:00,62.0,60.5,29.95,WNW,302,2.0,7.0,95,0.00,,,0.05,WeatherCatV1.02B3,2013-02-10 17:37:00,
2013-02-10 11:42:00,62.1,60.6,29.95,NNW,327,0.0,6.0,95,0.00,,,0.05,WeatherCatV1.02B3,2013-02-10 17:42:00,
2013-02-10 11:47:00,62.2,60.7,29.95,NW,308,4.0,7.0,95,0.00,,,0.05,WeatherCatV1.02B3,2013-02-10 17:47:00,
2013-02-10 11:52:00,62.4,60.9,29.95,NW,315,3.0,5.0,95,0.00,,,0.05,WeatherCatV1.02B3,2013-02-10 17:52:00,
2013-02-10 11:57:00,62.5,61.0,29.96,NW,316,2.0,10.0,95,0.00,,,0.05,WeatherCatV1.02B3,2013-02-10 17:57:00,
2013-02-10 12:02:00,62.6,61.1,29.98,NNW,340,1.0,1.0,95,0.00,,,0.05,WeatherCatV1.02B3,2013-02-10 18:02:00,
2013-02-10 12:07:00,61.6,59.6,30.01,North,355,1.0,11.0,93,0.00,,,0.05,WeatherCatV1.02B3,2013-02-10 18:07:00,
2013-02-10 12:12:00,59.4,56.5,30.01,ESE,102,2.0,6.0,90,0.00,,,0.05,WeatherCatV1.02B3,2013-02-10 18:12:00,
2013-02-10 12:17:00,58.0,55.1,30.00,South,182,0.0,7.0,90,0.00,,,0.06,WeatherCatV1.02B3,2013-02-10 18:17:00,
2013-02-10 12:22:00,57.0,54.4,30.00,South,169,10.0,11.0,91,0.40,,,0.10,WeatherCatV1.02B3,2013-02-10 18:22:00,
2013-02-10 12:27:00,56.4,54.1,30.00,ESE,107,2.0,6.0,92,0.16,,,0.13,WeatherCatV1.02B3,2013-02-10 18:27:00,
2013-02-10 12:32:00,56.2,54.2,29.96,West,275,0.0,4.0,93,0.64,,,0.16,WeatherCatV1.02B3,2013-02-10 18:32:00,
2013-02-10 12:37:00,56.2,54.5,29.99,West,275,0.0,0.0,94,0.29,,,0.18,WeatherCatV1.02B3,2013-02-10 18:37:00,
2013-02-10 12:42:00,56.2,54.5,29.98,West,275,0.0,1.0,94,0.71,,,0.26,WeatherCatV1.02B3,2013-02-10 18:42:00,
2013-02-10 12:47:00,56.2,54.5,30.00,West,275,0.0,0.0,94,2.25,,,0.35,WeatherCatV1.02B3,2013-02-10 18:47:00,
2013-02-10 12:52:00,56.2,54.5,30.01,NW,307,0.0,2.0,94,2.33,,,0.44,WeatherCatV1.02B3,2013-02-10 18:52:00,
2013-02-10 12:57:00,56.2,54.8,29.98,NW,306,0.0,1.0,95,2.00,,,0.63,WeatherCatV1.02B3,2013-02-10 18:57:00,
2013-02-10 13:02:00,56.2,54.8,30.00,NW,307,0.0,3.0,95,0.84,,,0.70,WeatherCatV1.02B3,2013-02-10 19:02:00,
2013-02-10 13:07:00,56.2,54.8,29.95,SSW,192,0.0,3.0,95,0.46,,,0.80,WeatherCatV1.02B3,2013-02-10 19:07:00,
2013-02-10 13:12:00,56.2,54.8,29.97,SSE,154,0.0,0.0,95,0.46,,,0.85,WeatherCatV1.02B3,2013-02-10 19:12:00,
2013-02-10 13:17:00,56.2,54.8,29.98,SSE,154,0.0,0.0,95,0.82,,,0.90,WeatherCatV1.02B3,2013-02-10 19:17:00,
2013-02-10 13:22:00,56.2,54.8,29.96,WSW,256,1.0,3.0,95,0.55,,,0.98,WeatherCatV1.02B3,2013-02-10 19:22:00,
2013-02-10 13:27:00,56.2,54.8,29.97,WSW,256,0.0,0.0,95,1.08,,,1.02,WeatherCatV1.02B3,2013-02-10 19:27:00,
2013-02-10 13:32:00,56.2,54.8,29.98,WSW,258,0.0,0.0,95,0.55,,,1.11,WeatherCatV1.02B3,2013-02-10 19:32:00,
2013-02-10 13:37:00,56.2,54.8,29.95,SW,232,4.0,5.0,95,0.38,,,1.14,WeatherCatV1.02B3,2013-02-10 19:37:00,
2013-02-10 13:42:00,56.2,54.8,29.93,SW,233,0.0,0.0,95,0.16,,,1.15,WeatherCatV1.02B3,2013-02-10 19:42:00,
2013-02-10 13:47:00,56.3,55.2,29.92,West,259,4.0,4.0,96,0.15,,,1.17,WeatherCatV1.02B3,2013-02-10 19:47:00,
2013-02-10 13:52:00,56.5,55.4,29.94,West,280,0.0,0.0,96,0.31,,,1.20,WeatherCatV1.02B3,2013-02-10 19:52:00,
2013-02-10 13:57:00,56.7,55.6,29.92,SSW,192,0.0,3.0,96,0.21,,,1.22,WeatherCatV1.02B3,2013-02-10 19:57:00,
2013-02-10 14:02:00,56.8,55.7,29.91,NW,318,4.0,4.0,96,0.56,,,1.27,WeatherCatV1.02B3,2013-02-10 20:02:00,
2013-02-10 14:07:00,57.1,56.0,29.99,NNW,329,1.0,3.0,96,1.66,,,1.34,WeatherCatV1.02B3,2013-02-10 20:07:00,
2013-02-10 14:12:00,57.2,56.1,29.98,NNW,330,0.0,0.0,96,0.80,,,1.53,WeatherCatV1.02B3,2013-02-10 20:12:00,
2013-02-10 14:17:00,57.3,56.2,29.98,NNW,330,0.0,2.0,96,0.51,,,1.61,WeatherCatV1.02B3,2013-02-10 20:17:00,
2013-02-10 14:22:00,57.2,56.1,29.95,West,269,2.0,3.0,96,0.24,,,1.64,WeatherCatV1.02B3,2013-02-10 20:22:00,
2013-02-10 14:27:00,57.1,56.0,29.95,West,269,0.0,1.0,96,0.12,,,1.65,WeatherCatV1.02B3,2013-02-10 20:27:00,
2013-02-10 14:32:00,57.1,56.0,29.95,WNW,286,2.0,3.0,96,0.11,,,1.65,WeatherCatV1.02B3,2013-02-10 20:32:00,
2013-02-10 14:37:00,57.2,56.1,29.94,WNW,293,2.0,2.0,96,0.09,,,1.66,WeatherCatV1.02B3,2013-02-10 20:37:00,
2013-02-10 14:42:00,57.4,56.3,29.93,WSW,250,1.0,2.0,96,0.09,,,1.67,WeatherCatV1.02B3,2013-02-10 20:42:00,
2013-02-10 14:47:00,57.4,56.3,29.95,WNW,282,2.0,3.0,96,0.14,,,1.68,WeatherCatV1.02B3,2013-02-10 20:47:00,
2013-02-10 14:52:00,57.5,56.4,29.94,WNW,298,0.0,6.0,96,0.18,,,1.70,WeatherCatV1.02B3,2013-02-10 20:52:00,
2013-02-10 14:57:00,57.5,56.4,29.93,NW,304,0.0,2.0,96,0.11,,,1.70,WeatherCatV1.02B3,2013-02-10 20:57:00,
2013-02-10 15:02:00,57.6,56.5,29.94,West,267,0.0,5.0,96,0.19,,,1.72,WeatherCatV1.02B3,2013-02-10 21:02:00,
2013-02-10 15:07:00,57.7,56.6,29.95,NW,310,1.0,4.0,96,0.27,,,1.74,WeatherCatV1.02B3,2013-02-10 21:07:00,
2013-02-10 15:12:00,57.8,56.7,29.94,WNW,289,0.0,6.0,96,0.22,,,1.76,WeatherCatV1.02B3,2013-02-10 21:12:00,
2013-02-10 15:17:00,58.1,57.0,29.94,NW,313,4.0,8.0,96,0.11,,,1.76,WeatherCatV1.02B3,2013-02-10 21:17:00,
2013-02-10 15:22:00,58.2,57.1,29.92,WNW,300,1.0,4.0,96,0.10,,,1.77,WeatherCatV1.02B3,2013-02-10 21:22:00,
2013-02-10 15:27:00,58.3,57.2,29.93,WNW,298,2.0,7.0,96,0.10,,,1.78,WeatherCatV1.02B3,2013-02-10 21:27:00,
2013-02-10 15:32:00,58.4,57.3,29.93,WNW,298,2.0,5.0,96,0.09,,,1.79,WeatherCatV1.02B3,2013-02-10 21:32:00,
2013-02-10 15:37:00,58.5,57.4,29.93,NW,313,0.0,6.0,96,0.17,,,1.80,WeatherCatV1.02B3,2013-02-10 21:37:00,
2013-02-10 15:42:00,58.6,57.5,29.93,NW,310,0.0,2.0,96,0.12,,,1.81,WeatherCatV1.02B3,2013-02-10 21:42:00,
2013-02-10 15:47:00,58.6,57.7,29.94,NW,309,3.0,4.0,97,0.13,,,1.82,WeatherCatV1.02B3,2013-02-10 21:47:00,
2013-02-10 15:52:00,58.7,57.8,29.93,WNW,301,1.0,6.0,97,0.23,,,1.84,WeatherCatV1.02B3,2013-02-10 21:52:00,
2013-02-10 15:57:00,58.8,57.9,29.91,WNW,301,4.0,5.0,97,0.24,,,1.86,WeatherCatV1.02B3,2013-02-10 21:57:00,
2013-02-10 16:02:00,58.9,58.0,29.90,WNW,292,0.0,4.0,97,0.16,,,1.87,WeatherCatV1.02B3,2013-02-10 22:02:00,
2013-02-10 16:07:00,59.1,58.0,29.90,WNW,287,3.0,4.0,96,0.13,,,1.88,WeatherCatV1.02B3,2013-02-10 22:07:00,
2013-02-10 16:12:00,59.2,58.1,29.90,WNW,285,0.0,1.0,96,0.24,,,1.91,WeatherCatV1.02B3,2013-02-10 22:12:00,
2013-02-10 16:17:00,59.2,58.1,29.88,WNW,288,0.0,4.0,96,0.21,,,1.92,WeatherCatV1.02B3,2013-02-10 22:17:00,
2013-02-10 16:22:00,59.3,58.4,29.87,NW,318,2.0,7.0,97,0.08,,,1.93,WeatherCatV1.02B3,2013-02-10 22:22:00,
2013-02-10 16:27:00,59.5,58.6,29.88,WNW,294,0.0,2.0,97,0.08,,,1.93,WeatherCatV1.02B3,2013-02-10 22:27:00,
2013-02-10 16:32:00,59.7,58.8,29.89,NNW,327,1.0,4.0,97,0.06,,,1.93,WeatherCatV1.02B3,2013-02-10 22:32:00,
2013-02-10 16:38:00,60.0,59.1,29.89,NW,317,2.0,2.0,97,0.04,,,1.93,WeatherCatV1.02B3,2013-02-10 22:38:00,
2013-02-10 16:43:00,60.2,59.3,29.90,NW,311,0.0,5.0,97,0.00,,,1.93,WeatherCatV1.02B3,2013-02-10 22:43:00,
2013-02-10 16:48:00,60.4,59.5,29.90,WNW,303,2.0,6.0,97,0.00,,,1.93,WeatherCatV1.02B3,2013-02-10 22:48:00,
2013-02-10 16:53:00,60.6,59.7,29.90,WNW,303,3.0,6.0,97,0.00,,,1.93,WeatherCatV1.02B3,2013-02-10 22:53:00,
2013-02-10 16:58:00,60.7,59.8,29.90,WNW,296,3.0,5.0,97,0.00,,,1.93,WeatherCatV1.02B3,2013-02-10 22:58:00,
2013-02-10 17:03:00,60.8,59.9,29.91,NW,306,5.0,6.0,97,0.00,,,1.93,WeatherCatV1.02B3,2013-02-10 23:03:00,
2013-02-10 17:08:00,60.8,59.9,29.91,WNW,302,1.0,6.0,97,0.00,,,1.93,WeatherCatV1.02B3,2013-02-10 23:08:00,
2013-02-10 17:13:00,60.7,59.8,29.92,NW,314,3.0,7.0,97,0.00,,,1.93,WeatherCatV1.02B3,2013-02-10 23:13:00,
2013-02-10 17:18:00,60.7,59.8,29.93,North,355,1.0,4.0,97,0.00,,,1.93,WeatherCatV1.02B3,2013-02-10 23:18:00,
2013-02-10 17:23:00,60.6,59.7,29.92,NW,321,0.0,4.0,97,0.00,,,1.93,WeatherCatV1.02B3,2013-02-10 23:23:00,
2013-02-10 17:28:00,60.5,59.4,29.92,NW,317,0.0,3.0,96,0.00,,,1.93,WeatherCatV1.02B3,2013-02-10 23:28:00,
2013-02-10 17:33:00,60.4,59.3,29.93,NW,317,0.0,3.0,96,0.00,,,1.93,WeatherCatV1.02B3,2013-02-10 23:33:00,
2013-02-10 17:38:00,60.3,59.2,29.93,WNW,303,0.0,2.0,96,0.00,,,1.93,WeatherCatV1.02B3,2013-02-10 23:38:00,
2013-02-10 17:43:00,60.2,59.3,29.93,North,355,0.0,0.0,97,0.00,,,1.93,WeatherCatV1.02B3,2013-02-10 23:43:00,
2013-02-10 17:48:00,60.2,59.3,29.94,North,355,0.0,1.0,97,0.00,,,1.93,WeatherCatV1.02B3,2013-02-10 23:48:00,
2013-02-10 17:53:00,60.2,59.3,29.94,North,355,0.0,1.0,97,0.00,,,1.93,WeatherCatV1.02B3,2013-02-10 23:53:00,
2013-02-10 17:58:00,60.3,59.2,29.94,WNW,290,0.0,5.0,96,0.00,,,1.93,WeatherCatV1.02B3,2013-02-10 23:58:00,
2013-02-10 18:03:00,60.3,59.4,29.94,NW,323,3.0,4.0,97,0.00,,,1.93,WeatherCatV1.02B3,2013-02-11 00:03:00,
2013-02-10 18:08:00,60.3,59.4,29.94,NW,312,0.0,2.0,97,0.00,,,1.93,WeatherCatV1.02B3,2013-02-11 00:08:00,
2013-02-10 18:13:00,60.3,59.2,29.95,NW,315,0.0,0.0,96,0.00,,,1.93,WeatherCatV1.02B3,2013-02-11 00:13:00,
2013-02-10 18:18:00,60.3,59.2,29.95,NW,316,3.0,3.0,96,0.00,,,1.93,WeatherCatV1.02B3,2013-02-11 00:18:00,
2013-02-10 18:23:00,60.3,59.4,29.95,NW,315,0.0,0.0,97,0.00,,,1.93,WeatherCatV1.02B3,2013-02-11 00:23:00,
2013-02-10 18:28:00,60.3,59.4,29.96,NW,315,0.0,0.0,97,0.00,,,1.93,WeatherCatV1.02B3,2013-02-11 00:28:00,
2013-02-10 18:33:00,60.3,59.4,29.96,NW,315,0.0,0.0,97,0.00,,,1.93,WeatherCatV1.02B3,2013-02-11 00:33:00,
2013-02-10 18:38:00,60.3,59.4,29.95,NW,315,0.0,1.0,97,0.00,,,1.93,WeatherCatV1.02B3,2013-02-11 00:38:00,
2013-02-10 18:43:00,60.3,59.4,29.95,NW,313,0.0,4.0,97,0.00,,,1.93,WeatherCatV1.02B3,2013-02-11 00:43:00,
2013-02-10 18:48:00,60.4,59.5,29.95,NW,313,0.0,1.0,97,0.00,,,1.93,WeatherCatV1.02B3,2013-02-11 00:48:00,
2013-02-10 18:53:00,60.3,59.4,29.94,NW,313,0.0,0.0,97,0.00,,,1.93,WeatherCatV1.02B3,2013-02-11 00:53:00,
2013-02-10 18:58:00,60.3,59.4,29.95,NW,313,0.0,0.0,97,0.00,,,1.93,WeatherCatV1.02B3,2013-02-11 00:58:00,
2013-02-10 19:03:00,60.2,59.3,29.95,NW,313,0.0,0.0,97,0.00,,,1.93,WeatherCatV1.02B3,2013-02-11 01:03:00,
2013-02-10 19:08:00,60.2,59.3,29.95,NW,313,0.0,0.0,97,0.00,,,1.93,WeatherCatV1.02B3,2013-02-11 01:08:00,
2013-02-10 19:13:00,60.1,59.2,29.95,NW,313,0.0,0.0,97,0.00,,,1.93,WeatherCatV1.02B3,2013-02-11 01:13:00,
2013-02-10 19:18:00,60.0,59.1,29.96,NW,313,0.0,0.0,97,0.00,,,1.93,WeatherCatV1.02B3,2013-02-11 01:18:00,
2013-02-10 19:23:00,60.0,59.1,29.97,NW,313,0.0,0.0,97,0.00,,,1.93,WeatherCatV1.02B3,2013-02-11 01:23:00,
2013-02-10 19:28:00,60.1,59.2,29.97,NW,313,0.0,0.0,97,0.00,,,1.93,WeatherCatV1.02B3,2013-02-11 01:28:00,
2013-02-10 19:33:00,60.2,59.3,29.97,NW,313,0.0,0.0,97,0.00,,,1.93,WeatherCatV1.02B3,2013-02-11 01:33:00,
2013-02-10 19:38:00,60.2,59.3,29.98,NW,313,0.0,0.0,97,0.00,,,1.93,WeatherCatV1.02B3,2013-02-11 01:38:00,
2013-02-10 19:43:00,60.1,59.2,29.98,NW,313,0.0,0.0,97,0.00,,,1.93,WeatherCatV1.02B3,2013-02-11 01:43:00,
2013-02-10 19:48:00,60.1,59.2,29.98,NW,313,0.0,0.0,97,0.00,,,1.93,WeatherCatV1.02B3,2013-02-11 01:48:00,
2013-02-10 19:53:00,60.0,59.1,29.97,NW,313,0.0,0.0,97,0.00,,,1.93,WeatherCatV1.02B3,2013-02-11 01:53:00,
2013-02-10 19:58:00,60.0,59.1,29.98,NW,313,0.0,1.0,97,0.00,,,1.93,WeatherCatV1.02B3,2013-02-11 01:58:00,
2013-02-10 20:03:00,60.1,59.2,29.99,NW,313,0.0,0.0,97,0.00,,,1.93,WeatherCatV1.02B3,2013-02-11 02:03:00,
2013-02-10 20:08:00,60.2,59.3,29.98,NW,313,0.0,1.0,97,0.00,,,1.93,WeatherCatV1.02B3,2013-02-11 02:08:00,
2013-02-10 20:13:00,60.2,59.3,29.98,NW,313,0.0,2.0,97,0.00,,,1.93,WeatherCatV1.02B3,2013-02-11 02:13:00,
2013-02-10 20:18:00,60.3,59.4,29.98,NNW,337,0.0,2.0,97,0.00,,,1.93,WeatherCatV1.02B3,2013-02-11 02:18:00,
2013-02-10 20:23:00,60.4,59.5,29.99,NNW,337,0.0,1.0,97,0.00,,,1.93,WeatherCatV1.02B3,2013-02-11 02:23:00,
2013-02-10 20:28:00,60.5,59.6,29.99,NNW,338,0.0,0.0,97,0.00,,,1.93,WeatherCatV1.02B3,2013-02-11 02:28:00,
2013-02-10 20:33:00,60.7,59.8,29.99,NNW,338,0.0,0.0,97,0.00,,,1.93,WeatherCatV1.02B3,2013-02-11 02:33:00,
2013-02-10 20:38:00,60.8,59.9,29.99,NNW,338,0.0,0.0,97,0.00,,,1.93,WeatherCatV1.02B3,2013-02-11 02:38:00,
2013-02-10 20:43:00,60.8,59.9,29.99,NNW,338,0.0,0.0,97,0.00,,,1.93,WeatherCatV1.02B3,2013-02-11 02:43:00,
2013-02-10 20:48:00,60.8,59.9,29.98,NNW,338,0.0,0.0,97,0.00,,,1.93,WeatherCatV1.02B3,2013-02-11 02:48:00,
2013-02-10 20:53:00,60.8,59.9,29.98,NNW,338,0.0,1.0,97,0.00,,,1.93,WeatherCatV1.02B3,2013-02-11 02:53:00,
2013-02-10 20:58:00,60.7,59.8,29.97,NNW,338,0.0,1.0,97,0.00,,,1.93,WeatherCatV1.02B3,2013-02-11 02:58:00,
2013-02-10 21:03:00,60.6,59.7,29.98,NNW,338,0.0,0.0,97,0.00,,,1.93,WeatherCatV1.02B3,2013-02-11 03:03:00,
2013-02-10 21:08:00,60.7,59.8,29.98,NNW,338,0.0,0.0,97,0.00,,,1.93,WeatherCatV1.02B3,2013-02-11 03:08:00,
2013-02-10 21:13:00,60.7,59.8,29.98,NNW,338,0.0,0.0,97,0.00,,,1.93,WeatherCatV1.02B3,2013-02-11 03:13:00,
2013-02-10 21:18:00,60.7,59.8,29.99,NNW,338,0.0,3.0,97,0.00,,,1.93,WeatherCatV1.02B3,2013-02-11 03:18:00,
2013-02-10 21:23:00,60.8,59.9,29.99,NNW,338,0.0,0.0,97,0.00,,,1.93,WeatherCatV1.02B3,2013-02-11 03:23:00,
2013-02-10 21:28:00,60.9,60.0,29.99,NNW,338,0.0,0.0,97,0.00,,,1.93,WeatherCatV1.02B3,2013-02-11 03:28:00,
2013-02-10 21:33:00,61.0,60.1,30.00,NNW,338,0.0,1.0,97,0.00,,,1.93,WeatherCatV1.02B3,2013-02-11 03:33:00,
2013-02-10 21:38:00,61.1,60.2,30.00,North,355,2.0,3.0,97,0.00,,,1.93,WeatherCatV1.02B3,2013-02-11 03:38:00,
2013-02-10 21:43:00,61.3,60.4,30.00,NW,319,1.0,2.0,97,0.00,,,1.93,WeatherCatV1.02B3,2013-02-11 03:43:00,
2013-02-10 21:48:00,61.3,60.4,30.00,NW,319,0.0,1.0,97,0.00,,,1.93,WeatherCatV1.02B3,2013-02-11 03:48:00,
2013-02-10 21:53:00,61.4,60.5,30.00,NW,319,0.0,0.0,97,0.00,,,1.93,WeatherCatV1.02B3,2013-02-11 03:53:00,
2013-02-10 21:58:00,61.4,60.5,30.01,NW,319,0.0,2.0,97,0.00,,,1.93,WeatherCatV1.02B3,2013-02-11 03:58:00,
2013-02-10 22:03:00,61.5,60.6,30.03,East,80,7.0,7.0,97,0.00,,,1.93,WeatherCatV1.02B3,2013-02-11 04:03:00,
2013-02-10 22:08:00,61.6,60.7,30.00,ENE,59,0.0,0.0,97,0.00,,,1.93,WeatherCatV1.02B3,2013-02-11 04:08:00,
2013-02-10 22:13:00,61.5,60.6,30.02,ENE,59,0.0,2.0,97,0.00,,,1.93,WeatherCatV1.02B3,2013-02-11 04:13:00,
2013-02-10 22:18:00,61.4,60.5,30.01,ENE,59,0.0,1.0,97,0.00,,,1.93,WeatherCatV1.02B3,2013-02-11 04:18:00,
2013-02-10 22:23:00,61.4,60.5,30.01,ENE,59,0.0,0.0,97,0.00,,,1.93,WeatherCatV1.02B3,2013-02-11 04:23:00,
2013-02-10 22:28:00,61.4,60.5,30.01,ENE,59,0.0,0.0,97,0.00,,,1.93,WeatherCatV1.02B3,2013-02-11 04:28:00,
2013-02-10 22:33:00,61.4,60.5,30.02,ENE,59,0.0,1.0,97,0.00,,,1.93,WeatherCatV1.02B3,2013-02-11 04:33:00,
2013-02-10 22:38:00,61.4,60.5,30.02,ENE,59,0.0,1.0,97,0.00,,,1.93,WeatherCatV1.02B3,2013-02-11 04:38:00,
2013-02-10 22:43:00,61.4,60.5,30.02,ENE,59,0.0,0.0,97,0.00,,,1.93,WeatherCatV1.02B3,2013-02-11 04:43:00,
2013-02-10 22:48:00,61.3,60.4,30.01,ENE,59,0.0,0.0,97,0.00,,,1.93,WeatherCatV1.02B3,2013-02-11 04:48:00,
2013-02-10 22:53:00,61.3,60.4,30.00,WNW,298,0.0,3.0,97,0.00,,,1.93,WeatherCatV1.02B3,2013-02-11 04:53:00,
2013-02-10 22:58:00,61.3,60.4,30.00,WNW,299,0.0,0.0,97,0.00,,,1.93,WeatherCatV1.02B3,2013-02-11 04:58:00,
2013-02-10 23:00:00,61.3,60.4,30.00,WNW,299,0.0,0.0,97,0.00,,,1.93,WeatherCatV1.02B3,2013-02-11 05:00:00,
2013-02-10 23:05:00,61.2,60.3,30.00,WNW,299,0.0,0.0,97,0.00,,,1.93,WeatherCatV1.02B3,2013-02-11 05:05:00,
2013-02-10 23:10:00,61.2,60.3,30.00,WNW,299,0.0,0.0,97,0.00,,,1.93,WeatherCatV1.02B3,2013-02-11 05:10:00,
2013-02-10 23:15:00,61.2,60.3,30.00,WNW,299,0.0,1.0,97,0.00,,,1.93,WeatherCatV1.02B3,2013-02-11 05:15:00,
2013-02-10 23:20:00,61.2,60.3,30.00,WNW,299,0.0,0.0,97,0.00,,,1.93,WeatherCatV1.02B3,2013-02-11 05:20:00,
2013-02-10 23:25:00,61.2,60.3,30.00,WNW,299,0.0,0.0,97,0.00,,,1.93,WeatherCatV1.02B3,2013-02-11 05:25:00,
2013-02-10 23:30:00,61.1,60.2,30.01,WNW,299,0.0,0.0,97,0.00,,,1.93,WeatherCatV1.02B3,2013-02-11 05:30:00,
2013-02-10 23:35:00,61.1,60.2,30.01,WNW,299,0.0,0.0,97,0.00,,,1.93,WeatherCatV1.02B3,2013-02-11 05:35:00,
2013-02-10 23:40:00,61.1,60.2,30.02,WNW,299,0.0,0.0,97,0.00,,,1.93,WeatherCatV1.02B3,2013-02-11 05:40:00,
2013-02-10 23:45:00,61.2,60.3,30.04,WNW,299,1.0,1.0,97,0.00,,,1.94,WeatherCatV1.02B3,2013-02-11 05:45:00,
2013-02-10 23:50:00,61.3,60.4,30.07,East,82,4.0,5.0,97,0.00,,,1.94,WeatherCatV1.02B3,2013-02-11 05:50:00,
2013-02-10 23:55:00,61.3,60.4,30.06,NE,45,0.0,0.0,97,0.05,,,1.95,WeatherCatV1.02B3,2013-02-11 05:55:00,